Date,TemperatureHighF,TemperatureAvgF,TemperatureLowF,DewpointHighF,DewpointAvgF,DewpointLowF,HumidityHigh,HumidityAvg,HumidityLow,PressureMaxIn,PressureMinIn,WindSpeedMaxMPH,WindSpeedAvgMPH,GustSpeedMaxMPH,PrecipitationSumIn
2013-1-1,65,58,50,57,54,47,93,85,76,30.19,29.96,3,1,5,0.00
2013-1-2,62,58,53,60,56,50,95,91,86,30.12,29.94,7,2,10,0.01
2013-1-3,54,51,48,52,49,46,95,93,89,30.25,30.08,6,1,12,0.24
2013-1-4,55,48,40,47,42,38,95,79,56,30.34,30.24,5,1,9,0.00
2013-1-5,56,51,42,41,38,35,85,63,52,30.39,30.29,5,2,8,0.00
2013-1-6,54,51,49,49,47,43,92,86,67,30.23,30.12,5,1,8,0.07
2013-1-7,55,51,44,42,39,36,81,64,50,30.36,30.26,11,4,15,0.00
2013-1-8,65,57,46,56,51,42,91,81,69,30.37,30.28,9,2,10,0.00
2013-1-9,72,64,56,65,60,53,95,86,77,30.38,30.30,7,2,12,0.00
2013-1-10,71,64,59,62,59,57,97,87,63,30.41,30.31,9,3,18,0.01
2013-1-11,75,64,55,68,61,54,97,90,76,30.31,30.17,5,1,7,0.00
2013-1-12,75,65,60,67,63,59,97,91,75,30.21,30.12,5,1,8,0.01
2013-1-13,72,64,58,65,62,57,97,90,76,30.18,30.09,4,1,7,0.01
2013-1-14,78,69,62,67,63,60,97,84,66,30.20,30.11,6,2,9,0.02
2013-1-15,77,66,62,66,63,61,96,89,68,30.16,30.05,6,2,11,0.00
2013-1-16,76,69,62,66,63,61,96,83,67,30.07,29.96,4,1,7,0.01
2013-1-17,74,61,44,63,54,37,93,79,68,30.09,29.76,13,4,22,0.05
2013-1-18,57,48,42,39,33,25,83,59,30,30.48,30.09,14,4,16,0.00
2013-1-19,60,53,44,49,44,35,94,71,58,30.45,30.23,12,3,12,0.00
2013-1-20,68,57,47,50,45,40,96,67,38,30.22,30.06,11,2,13,0.00
2013-1-21,65,57,45,44,42,37,85,57,40,30.11,29.99,9,3,15,0.00
2013-1-22,58,52,43,37,28,24,55,42,29,30.29,30.07,10,4,18,0.00
2013-1-23,58,47,37,38,27,19,65,47,36,30.39,30.24,9,2,12,0.00
2013-1-24,68,56,40,50,40,28,74,58,33,30.41,30.13,14,5,20,0.00
2013-1-25,57,48,34,48,40,25,87,73,62,30.41,30.15,13,2,15,0.00
2013-1-26,66,58,48,55,47,38,89,70,40,30.29,30.15,9,3,11,0.00
2013-1-27,57,50,44,45,42,38,90,75,53,30.47,30.29,9,4,16,0.00
2013-1-28,65,54,45,56,49,42,95,82,66,30.43,30.28,5,1,7,0.00
2013-1-29,74,63,50,66,60,49,97,90,74,30.28,30.12,5,1,11,0.00
2013-1-30,74,70,65,67,64,62,94,84,77,30.01,29.71,11,4,20,0.01
2013-1-31,56,50,46,35,30,26,64,47,32,30.20,29.97,14,6,21,0.07
2013-2-1,60,51,39,35,26,18,58,40,22,30.35,30.19,15,5,22,0.00
2013-2-2,59,51,35,41,37,28,77,60,44,30.36,30.14,5,1,7,0.00
2013-2-3,62,55,45,37,35,32,71,49,34,30.12,29.95,12,5,19,0.00
2013-2-4,55,49,43,42,36,32,89,63,43,30.14,30.05,5,1,7,0.00
2013-2-5,69,58,42,53,49,40,92,73,49,30.09,29.97,6,1,10,0.00
2013-2-6,72,61,52,57,54,50,93,81,50,30.16,30.09,8,2,12,0.00
2013-2-7,63,58,55,62,57,53,97,94,87,30.11,29.72,11,4,20,1.41
2013-2-8,65,57,49,53,50,46,94,80,64,30.05,29.75,11,3,16,0.00
2013-2-9,63,53,45,49,41,34,89,66,35,30.32,30.08,6,2,10,0.00
2013-2-10,65,57,43,56,51,42,96,81,69,30.36,30.17,12,4,18,0.00
2013-2-11,66,63,60,62,60,58,96,92,86,30.18,30.06,6,1,7,0.91
2013-2-12,59,56,53,59,54,52,97,94,85,30.12,29.87,10,2,11,2.39
2013-2-13,76,65,53,66,55,47,97,74,48,29.90,29.70,12,4,24,0.85
2013-2-14,54,49,45,48,44,42,93,82,68,30.07,29.89,9,1,13,0.00
2013-2-15,61,52,41,46,44,35,95,74,40,30.11,29.97,6,1,10,0.00
2013-2-16,53,46,39,48,35,18,92,68,40,30.07,29.87,17,5,25,0.01
2013-2-17,49,42,32,25,18,10,57,40,21,30.32,30.07,15,4,21,0.00
2013-2-18,55,45,36,37,28,22,87,55,31,30.43,30.25,8,1,12,0.00
2013-2-19,64,58,41,55,52,37,96,83,62,30.25,29.98,5,2,13,0.06
2013-2-20,58,50,40,50,36,28,93,60,38,30.17,30.07,8,2,12,0.00
2013-2-21,66,56,42,51,43,32,96,64,29,30.18,30.08,6,2,10,0.00
2013-2-22,63,58,54,61,56,50,96,92,84,30.15,30.02,16,4,26,0.14
2013-2-23,58,54,51,57,53,50,97,97,96,29.96,29.82,10,2,18,1.52
2013-2-24,71,58,50,53,51,46,95,78,43,30.00,29.92,7,2,10,0.01
2013-2-25,57,51,44,54,49,43,96,94,85,30.05,29.88,17,4,30,0.71
2013-2-26,72,64,47,67,59,46,97,85,64,29.92,29.58,17,4,26,0.93
2013-2-27,56,53,49,44,41,37,72,64,55,29.92,29.84,15,4,20,0.00
2013-2-28,62,55,48,44,38,33,79,54,35,29.90,29.80,14,5,19,0.00
2013-3-1,52,47,41,37,34,31,68,60,48,29.97,29.88,8,3,16,0.00
2013-3-2,49,46,39,35,33,31,76,61,49,29.96,29.88,13,6,23,0.00
2013-3-3,44,39,36,31,29,27,78,67,53,30.06,29.98,9,4,16,0.00
2013-3-4,57,46,33,44,31,23,83,58,31,30.20,30.05,8,2,17,0.00
2013-3-5,64,60,47,52,47,41,85,63,47,30.13,29.82,5,2,9,0.00
2013-3-6,44,43,42,32,28,23,65,57,45,29.92,29.88,24,12,30,0.00
2013-3-7,55,48,42,43,41,39,93,77,55,30.19,30.13,4,0,8,0.00
2013-3-8,62,53,43,42,32,28,93,47,30,30.28,30.16,10,3,14,0.00
2013-3-9,60,52,42,44,38,30,94,61,45,30.33,30.24,6,2,10,0.00
2013-3-10,64,56,43,51,46,42,95,71,54,30.27,30.19,12,4,16,0.00
2013-3-11,71,64,54,59,56,47,95,78,62,30.19,29.89,9,4,15,0.00
2013-3-12,69,63,58,62,54,44,95,75,45,29.97,29.83,6,3,12,0.12
2013-3-13,65,59,47,45,34,28,68,42,26,30.15,29.98,13,6,22,0.00
2013-3-14,57,49,39,37,26,24,66,43,29,30.32,30.13,16,4,19,0.00
2013-3-15,67,56,44,50,39,29,80,55,30,30.25,30.06,8,3,13,0.00
2013-3-16,77,68,56,50,46,41,65,46,31,30.06,29.91,8,3,15,0.00
2013-3-17,74,68,57,57,56,53,87,67,47,30.06,29.96,9,3,13,0.00
2013-3-18,68,63,56,61,58,54,95,85,74,30.07,29.87,12,4,25,0.28
2013-3-19,76,66,57,58,50,33,95,62,30,30.00,29.88,11,4,17,0.04
2013-3-20,64,56,46,43,34,24,90,48,23,30.09,29.85,10,3,13,0.00
2013-3-21,57,51,45,30,25,19,56,38,23,29.95,29.82,14,5,21,0.00
2013-3-22,60,50,41,44,36,24,91,61,42,30.10,29.94,9,2,12,0.00
2013-3-23,61,56,45,53,50,43,92,81,69,30.05,29.83,11,4,19,0.08
2013-3-24,73,59,52,68,57,50,97,91,77,29.86,29.48,13,5,22,0.88
2013-3-25,58,52,44,37,29,23,68,44,26,29.99,29.75,15,9,29,0.00
2013-3-26,51,46,38,30,27,25,63,50,39,30.21,30.00,14,8,25,0.00
2013-3-27,57,48,36,41,32,26,84,57,37,30.28,30.18,8,2,15,0.00
2013-3-28,63,52,41,45,33,25,87,52,24,30.31,30.19,8,3,13,0.00
2013-3-29,64,56,44,51,43,35,91,63,40,30.34,30.22,9,3,14,0.00
2013-3-30,74,64,57,54,49,46,78,61,39,30.24,30.09,6,2,12,0.00
2013-3-31,75,66,55,59,55,50,85,68,56,30.09,29.90,4,2,10,0.04
2013-4-1,78,70,61,62,59,57,91,72,54,29.95,29.85,9,2,15,0.03
2013-4-2,67,61,54,54,50,45,93,68,48,30.12,30.06,14,5,19,0.00
2013-4-3,66,57,54,55,52,48,97,82,66,30.18,30.07,17,4,20,0.03
2013-4-4,62,57,50,61,56,49,96,94,90,30.07,29.84,15,4,23,0.55
2013-4-5,58,50,45,50,46,44,95,88,72,30.03,29.85,10,4,13,0.27
2013-4-6,68,61,53,51,50,45,85,67,44,30.17,30.13,5,3,12,0.01
2013-4-7,72,66,59,64,60,55,95,81,68,30.23,30.14,12,5,17,0.00
2013-4-8,76,69,57,65,62,56,97,79,66,30.19,30.11,10,4,15,0.00
2013-4-9,81,72,61,68,65,60,97,80,63,30.22,30.14,6,2,12,0.01
2013-4-10,78,70,62,66,63,60,96,79,60,30.17,30.02,11,3,15,0.00
2013-4-11,79,71,65,72,68,64,96,88,77,30.02,29.83,11,4,16,0.01
2013-4-12,80,73,69,73,70,63,95,88,76,29.85,29.73,8,2,10,0.32
2013-4-13,75,66,58,57,53,47,92,65,44,30.02,29.92,7,2,10,0.00
2013-4-14,71,67,62,64,62,60,94,85,71,30.07,29.92,10,4,14,0.53
2013-4-15,73,67,62,65,63,61,95,87,70,30.15,29.89,10,2,14,0.15
2013-4-16,78,71,62,67,64,61,96,79,61,30.23,30.18,11,4,14,0.01
2013-4-17,79,73,63,68,65,61,97,77,56,30.22,30.14,11,4,13,0.01
2013-4-18,79,75,66,69,68,65,96,79,69,30.12,30.01,14,6,20,0.00
2013-4-19,82,74,67,73,70,65,96,87,73,29.98,29.85,7,3,15,0.61
2013-4-20,66,58,52,64,51,47,93,78,64,30.23,29.98,6,2,15,0.49
2013-4-21,69,61,50,57,52,45,86,71,59,30.30,30.22,16,5,25,0.04
2013-4-22,72,62,53,53,50,41,81,64,48,30.25,30.11,11,4,15,0.00
2013-4-23,68,61,54,58,54,49,92,79,67,30.21,30.13,8,3,13,0.00
2013-4-24,77,70,56,65,62,56,97,77,62,30.18,30.07,7,2,10,0.00
2013-4-25,82,73,65,68,65,63,92,77,58,30.21,30.11,6,1,8,0.00
2013-4-26,73,67,62,64,57,46,95,72,39,30.36,30.20,17,4,21,0.00
2013-4-27,75,68,59,62,58,53,93,71,45,30.32,30.23,9,4,15,0.00
2013-4-28,77,71,66,66,65,63,92,80,68,30.17,30.02,10,4,14,0.00
2013-4-29,75,68,64,69,65,63,96,90,78,30.04,29.96,3,1,6,0.70
2013-4-30,78,71,65,68,65,62,97,83,65,30.08,29.99,12,3,16,0.00
2013-5-1,73,67,62,63,61,59,91,80,67,30.16,30.08,8,2,14,0.00
2013-5-2,72,68,65,66,64,61,94,87,77,30.12,30.05,13,5,23,0.22
2013-5-3,70,66,63,64,62,60,91,85,79,30.07,29.97,14,5,22,0.00
2013-5-4,65,62,61,61,60,59,93,90,88,29.94,29.92,11,6,22,0.09
2013-5-5,70,67,61,68,64,60,96,91,85,29.84,29.77,14,5,27,0.40
2013-5-6,72,66,58,60,51,46,96,61,42,29.94,29.84,12,3,12,0.01
2013-5-7,73,65,59,62,56,52,89,73,53,29.98,29.90,7,2,17,0.17
2013-5-8,78,69,59,63,58,53,86,69,47,30.06,29.97,6,2,10,0.00
2013-5-9,85,73,64,68,63,59,92,73,52,30.10,30.03,5,2,10,0.00
2013-5-19,75,74,73,72,72,71,94,93,91,30.08,30.04,4,1,6,0.05
2013-5-20,83,78,73,75,72,70,95,83,71,30.11,30.03,9,2,13,0.01
2013-5-21,81,76,72,74,72,69,95,86,75,30.07,29.98,9,3,14,0.00
2013-5-22,85,79,72,73,71,69,95,77,66,30.01,29.92,9,3,15,0.00
2013-5-23,89,80,73,73,71,69,91,75,60,29.95,29.86,7,2,10,0.00
2013-5-24,81,77,74,62,61,59,64,58,47,29.99,29.95,7,4,14,0.00
2013-5-25,78,73,66,57,51,45,71,47,34,30.27,30.19,6,1,10,0.00
2013-5-26,85,74,66,66,61,57,77,64,44,30.26,30.16,8,2,12,0.00
2013-5-27,83,78,73,68,66,64,76,66,53,30.24,30.16,7,3,12,0.00
2013-5-28,82,78,73,69,67,66,87,69,59,30.24,30.17,13,5,18,0.00
2013-5-29,81,77,72,69,68,67,87,74,63,30.24,30.17,11,5,16,0.00
2013-5-30,84,80,75,73,72,71,89,77,66,30.23,30.16,12,6,15,0.00
2013-5-31,81,77,74,73,72,71,92,85,77,30.20,30.14,8,4,13,0.00
2013-6-1,85,80,75,74,72,71,87,76,66,30.14,30.07,11,5,16,0.00
2013-6-2,84,80,77,75,74,73,89,82,73,30.02,29.93,10,5,17,0.00
2013-6-3,90,85,78,78,75,72,90,73,58,29.95,29.85,6,2,11,0.01
2013-6-4,89,81,76,77,75,72,91,82,67,30.02,29.94,8,3,15,0.00
2013-6-5,80,79,77,76,75,75,95,88,83,30.01,29.99,9,4,11,0.00
2013-6-7,89,84,80,76,74,72,86,71,61,29.86,29.76,11,2,15,0.18
2013-6-8,89,83,76,78,75,73,88,77,64,30.01,29.95,8,3,15,0.00
2013-6-9,86,82,78,78,76,75,90,83,75,30.12,30.05,11,4,13,0.00
2013-6-10,88,80,70,79,75,69,97,85,74,30.10,29.95,10,2,21,0.58
2013-6-11,92,84,74,78,74,71,97,75,53,30.05,29.93,8,2,11,0.00
2013-6-12,95,88,79,77,75,73,82,65,49,30.00,29.91,7,3,10,0.00
2013-6-13,96,89,79,78,76,73,88,66,50,29.92,29.76,8,3,13,0.00
2013-6-14,90,84,74,72,66,60,81,58,39,29.98,29.80,8,2,12,0.00
2013-6-15,83,78,72,71,67,62,90,70,51,30.11,29.98,13,4,18,0.00
2013-6-16,88,81,75,69,67,66,76,64,53,30.16,30.06,7,2,11,0.00
2013-6-17,90,82,76,78,75,67,93,80,65,30.08,29.96,9,2,14,0.23
2013-6-18,90,84,76,78,75,73,90,75,58,29.97,29.86,6,2,17,0.00
2013-6-19,87,77,70,78,73,68,96,87,66,30.04,29.90,6,2,19,3.12
2013-6-20,83,78,71,74,72,69,97,82,71,30.14,30.02,12,3,16,0.01
2013-6-21,86,80,73,74,71,68,86,74,59,30.16,30.11,7,4,13,0.00
2013-6-23,88,83,78,78,76,74,90,80,68,30.16,30.11,8,3,13,0.00
2013-6-24,89,82,78,79,76,74,94,83,64,30.22,30.13,6,2,9,0.35
2013-6-25,90,82,74,79,75,69,93,81,69,30.16,30.06,6,1,7,0.15
2013-6-26,84,79,74,77,75,72,94,87,74,30.09,29.97,3,1,9,0.26
2013-6-27,88,82,78,79,74,67,89,75,61,29.98,29.81,5,2,13,0.00
2013-6-28,93,87,78,81,78,72,85,74,63,29.82,29.69,14,3,14,0.00
2013-6-29,88,80,74,76,74,71,92,83,66,29.77,29.71,9,2,17,0.69
2013-6-30,88,81,76,80,76,74,96,86,74,29.84,29.76,3,1,10,0.03
2013-7-1,86,80,74,78,75,73,94,86,77,30.00,29.83,4,1,6,0.23
2013-7-2,80,77,73,76,74,71,96,90,86,30.10,29.99,3,1,5,0.27